Ireland, IN

6:54 PM EDT on July 29, 2016 (GMT -0400)
Huntingburg

Weather History for KHNB - February, 2014

Change the Weather History Date:

Saturday, February 8, 2014

  Actual Average Record
Temperature  
Mean Temperature 21 °F -  
Max Temperature 28 °F 42 °F 60 °F (2001)
Min Temperature 14 °F 27 °F 3 °F (2003)
Degree Days  
Heating Degree Days 44    
Moisture  
Dew Point 17 °F    
Average Humidity 80    
Maximum Humidity 93    
Minimum Humidity 67    
Precipitation  
Precipitation 0.00 in - - ()
Sea Level Pressure  
Sea Level Pressure 30.25 in    
Wind  
Wind Speed 5 mph (SE)    
Max Wind Speed 10 mph    
Max Gust Speed -    
Visibility 8 miles    
Events      
Averages and records for this station are not official NWS values.
T = Trace of Precipitation, MM = Missing Value Source: NWS Daily Summary

Daily Weather History Graph

Daily Weather History Graph

Search for Another Location

Airport or City:

Trip Planner

Search our weather history database for the weather conditions in past years. The results will help you decide how hot, cold, wet, or windy it might be!

Date:

Astronomy

Feb. 08, 2014 Rise Set
Actual Time 7:45 AM EST 6:18 PM EST
Civil Twilight 7:18 AM EST 6:45 PM EST
Nautical Twilight 6:47 AM EST 7:17 PM EST
Astronomical Twilight 6:16 AM EST 7:47 PM EST
Moon 1:13 PM EST (2/8) 2:56 AM EST (2/8)
Length of Visible Light 11h 27m
Length of Day
10h 32m
Waxing Gibbous, 68% of the Moon is Illuminated
Feb 8
Waxing Gibbous
Feb 14
Full
Feb 22
Last Quarter
Mar 1
New
Mar 8
First Quarter

Hourly Weather History & Observations

Time (EST) Temp. Windchill Dew Point Humidity Pressure Visibility Wind Dir Wind Speed Gust Speed Precip Events Conditions
12:15 AM 14.0 °F - 5.0 °F 67% 30.36 in 10.0 mi Calm Calm - N/A   Overcast
12:35 AM 14.0 °F - 5.0 °F 67% 30.37 in 10.0 mi Calm Calm - N/A   Partly Cloudy
12:55 AM 15.8 °F 10.2 °F 6.8 °F 68% 30.37 in 10.0 mi NW 3.5 mph - N/A   Clear
1:15 AM 14.0 °F 5.1 °F 5.0 °F 67% 30.36 in 10.0 mi North 5.8 mph - N/A   Scattered Clouds
1:35 AM 14.0 °F 5.1 °F 6.8 °F 73% 30.36 in 10.0 mi North 5.8 mph - N/A   Partly Cloudy
1:55 AM 14.0 °F 5.1 °F 5.0 °F 67% 30.35 in 10.0 mi NNE 5.8 mph - N/A   Clear
2:15 AM 14.0 °F 8.2 °F 6.8 °F 73% 30.35 in 10.0 mi North 3.5 mph - N/A   Clear
2:35 AM 14.0 °F 8.2 °F 6.8 °F 73% 30.35 in 10.0 mi North 3.5 mph - N/A   Clear
2:55 AM 14.0 °F - 6.8 °F 73% 30.35 in 10.0 mi Calm Calm - N/A   Clear
3:15 AM 14.0 °F 5.1 °F 6.8 °F 73% 30.34 in 10.0 mi NNE 5.8 mph - N/A   Clear
3:35 AM 15.8 °F 7.2 °F 6.8 °F 68% 30.34 in 10.0 mi NNE 5.8 mph - N/A   Clear
3:55 AM 15.8 °F 7.2 °F 8.6 °F 73% 30.33 in 10.0 mi NE 5.8 mph - N/A   Scattered Clouds
4:15 AM 15.8 °F 7.2 °F 8.6 °F 73% 30.32 in 10.0 mi NNE 5.8 mph - N/A   Overcast
4:35 AM 15.8 °F 7.2 °F 10.4 °F 79% 30.32 in 10.0 mi NE 5.8 mph - N/A   Overcast
4:55 AM 15.8 °F 7.2 °F 10.4 °F 79% 30.30 in 10.0 mi ENE 5.8 mph - N/A   Overcast
5:15 AM 15.8 °F 6.1 °F 10.4 °F 79% 30.30 in 10.0 mi ENE 6.9 mph - N/A   Overcast
5:35 AM 17.6 °F 8.2 °F 10.4 °F 73% 30.30 in 10.0 mi ENE 6.9 mph - N/A   Overcast
5:55 AM 17.6 °F 6.4 °F 10.4 °F 73% 30.29 in 10.0 mi ENE 9.2 mph - N/A   Overcast
6:15 AM 17.6 °F 8.2 °F 12.2 °F 79% 30.28 in 10.0 mi ENE 6.9 mph - N/A   Overcast
6:35 AM 17.6 °F 8.2 °F 12.2 °F 79% 30.28 in 10.0 mi East 6.9 mph - N/A   Mostly Cloudy
6:55 AM 17.6 °F 10.7 °F 12.2 °F 79% 30.29 in 10.0 mi SSE 4.6 mph - N/A   Mostly Cloudy
7:15 AM 17.6 °F 9.3 °F 12.2 °F 79% 30.29 in 10.0 mi East 5.8 mph - N/A   Overcast
7:35 AM 19.4 °F 12.8 °F 12.2 °F 74% 30.29 in 10.0 mi ESE 4.6 mph - N/A   Overcast
7:55 AM 19.4 °F 14.3 °F 12.2 °F 74% 30.30 in 10.0 mi East 3.5 mph - N/A   Partly Cloudy
8:15 AM 19.4 °F 14.3 °F 12.2 °F 74% 30.30 in 5.0 mi East 3.5 mph - N/A   Clear
8:35 AM 19.4 °F 14.3 °F 12.2 °F 74% 30.31 in 2.0 mi East 3.5 mph - N/A   Clear
8:55 AM 19.4 °F 12.8 °F 14.0 °F 80% 30.31 in 1.5 mi East 4.6 mph - N/A   Clear
9:15 AM 19.4 °F 12.8 °F 14.0 °F 80% 30.31 in 1.8 mi East 4.6 mph - N/A   Clear
9:35 AM 19.4 °F 12.8 °F 15.8 °F 86% 30.31 in 1.5 mi ESE 4.6 mph - N/A   Mostly Cloudy
9:55 AM 19.4 °F 14.3 °F 15.8 °F 86% 30.31 in 1.5 mi ESE 3.5 mph - N/A   Scattered Clouds
10:15 AM 19.4 °F 11.5 °F 15.8 °F 86% 30.31 in 2.5 mi SE 5.8 mph - N/A   Clear
10:35 AM 19.4 °F 9.5 °F 15.8 °F 86% 30.30 in 4.0 mi ESE 8.1 mph - N/A   Clear
10:55 AM 21.2 °F 11.7 °F 15.8 °F 80% 30.30 in 6.0 mi ESE 8.1 mph - N/A   Clear
11:15 AM 21.2 °F 10.9 °F 17.6 °F 86% 30.30 in 9.0 mi ESE 9.2 mph - N/A   Partly Cloudy
11:35 AM 21.2 °F 11.7 °F 17.6 °F 86% 30.30 in 10.0 mi ESE 8.1 mph - N/A   Mostly Cloudy
11:55 AM 23.0 °F 13.9 °F 17.6 °F 80% 30.29 in 10.0 mi ESE 8.1 mph - N/A   Overcast
12:15 PM 23.0 °F 14.7 °F 19.4 °F 86% 30.28 in 10.0 mi SE 6.9 mph - N/A   Overcast
12:35 PM 24.8 °F 17.9 °F 19.4 °F 80% 30.27 in 10.0 mi SE 5.8 mph - N/A   Overcast
12:55 PM 24.8 °F 16.1 °F 19.4 °F 80% 30.25 in 10.0 mi SE 8.1 mph - N/A   Overcast
1:15 PM 24.8 °F 16.1 °F 19.4 °F 80% 30.24 in 10.0 mi SE 8.1 mph - N/A   Overcast
1:35 PM 26.6 °F 16.8 °F 19.4 °F 74% 30.22 in 10.0 mi SE 10.4 mph - N/A   Overcast
1:55 PM 26.6 °F 19.1 °F 21.2 °F 80% 30.21 in 10.0 mi SE 6.9 mph - N/A   Mostly Cloudy
2:15 PM 26.6 °F 18.2 °F 21.2 °F 80% 30.20 in 10.0 mi SSE 8.1 mph - N/A   Mostly Cloudy
2:35 PM 26.6 °F 18.2 °F 21.2 °F 80% 30.20 in 10.0 mi South 8.1 mph - N/A   Mostly Cloudy
2:55 PM 26.6 °F 18.2 °F 21.2 °F 80% 30.19 in 10.0 mi South 8.1 mph - N/A   Mostly Cloudy
3:15 PM 26.6 °F 18.2 °F 21.2 °F 80% 30.18 in 10.0 mi South 8.1 mph - N/A   Mostly Cloudy
3:35 PM 26.6 °F 19.1 °F 23.0 °F 86% 30.18 in 10.0 mi South 6.9 mph - N/A   Overcast
3:55 PM 28.4 °F 22.2 °F 23.0 °F 80% 30.17 in 10.0 mi South 5.8 mph - N/A   Mostly Cloudy
4:15 PM 28.4 °F 23.3 °F 23.0 °F 80% 30.17 in 10.0 mi South 4.6 mph - N/A   Mostly Cloudy
4:35 PM 28.4 °F 23.3 °F 23.0 °F 80% 30.17 in 10.0 mi SSE 4.6 mph - N/A   Mostly Cloudy
4:55 PM 28.4 °F 22.2 °F 24.8 °F 86% 30.18 in 10.0 mi SSW 5.8 mph - N/A   Mostly Cloudy
5:15 PM 28.4 °F 22.2 °F 23.0 °F 80% 30.19 in 10.0 mi South 5.8 mph - N/A   Mostly Cloudy
5:35 PM 28.4 °F 22.2 °F 24.8 °F 86% 30.19 in 10.0 mi South 5.8 mph - N/A   Mostly Cloudy
5:55 PM 28.4 °F 22.2 °F 24.8 °F 86% 30.18 in 10.0 mi SSW 5.8 mph - N/A   Mostly Cloudy
6:15 PM 28.4 °F 22.2 °F 24.8 °F 86% 30.18 in 10.0 mi SSW 5.8 mph - N/A   Scattered Clouds
6:35 PM 28.4 °F 22.2 °F 24.8 °F 86% 30.19 in 10.0 mi SSW 5.8 mph - N/A   Partly Cloudy
6:55 PM 28.4 °F 24.6 °F 24.8 °F 86% 30.19 in 10.0 mi SSW 3.5 mph - N/A   Partly Cloudy
7:15 PM 28.4 °F 23.3 °F 24.8 °F 86% 30.19 in 8.0 mi South 4.6 mph - N/A   Partly Cloudy
7:35 PM 28.4 °F 23.3 °F 24.8 °F 86% 30.19 in 7.0 mi SSW 4.6 mph - N/A   Mostly Cloudy
7:55 PM 28.4 °F 24.6 °F 24.8 °F 86% 30.19 in 7.0 mi SW 3.5 mph - N/A   Partly Cloudy
8:15 PM 28.4 °F - 24.8 °F 86% 30.18 in 7.0 mi Calm Calm - N/A   Partly Cloudy
8:35 PM 28.4 °F 23.3 °F 24.8 °F 86% 30.17 in 8.0 mi SSE 4.6 mph - N/A   Mostly Cloudy
8:55 PM 28.4 °F 23.3 °F 24.8 °F 86% 30.17 in 6.0 mi South 4.6 mph - N/A   Scattered Clouds
9:15 PM 28.4 °F 23.3 °F 24.8 °F 86% 30.19 in 5.0 mi SSW 4.6 mph - N/A   Partly Cloudy
9:35 PM 28.4 °F 24.6 °F 24.8 °F 86% 30.18 in 5.0 mi South 3.5 mph - N/A   Partly Cloudy
9:55 PM 28.4 °F 24.6 °F 24.8 °F 86% 30.17 in 5.0 mi South 3.5 mph - N/A   Clear
10:15 PM 28.4 °F - 24.8 °F 86% 30.17 in 5.0 mi Calm Calm - N/A   Clear
10:35 PM 28.4 °F 23.3 °F 24.8 °F 86% 30.17 in 5.0 mi South 4.6 mph - N/A   Clear
10:55 PM 28.4 °F 24.6 °F 24.8 °F 86% 30.16 in 4.0 mi South 3.5 mph - N/A   Clear
11:15 PM 28.4 °F 24.6 °F 26.6 °F 93% 30.16 in 4.0 mi SSW 3.5 mph - N/A   Clear
11:35 PM 28.4 °F 23.3 °F 26.6 °F 93% 30.16 in 3.0 mi SSW 4.6 mph - N/A   Clear
11:55 PM 28.4 °F 23.3 °F 26.6 °F 93% 30.16 in 2.5 mi SSW 4.6 mph - N/A   Clear